RH
100 96 84 52 61 55 45 38 30 25 33 55 60 66 55 47 47 42 34 29 22 18 15 23 43 34 22 22 26 24 30 95 100 100 70 34 44 56 55 58 62 55 49 66
100 100 88 56 55 67 51 43 34 29 29 49 63 73 62 54 52 48 46 33 32 30 20 18 27 21 20 24 30 26 54 93 100 82 51 30 77 66 47 80 100 84 89 100
100 100 90 63 66 69 64 48 39 30 25 45 62 76 75 72 63 53 56 36 39 38 36 31 36 33 34 33 32 70 61 100 80 55 39 48 45 40 45 63 73 70 100 100
100 97 91 76 62 72 67 53 51 38 29 34 52 65 67 73 74 72 63 48 47 53 54 38 60 58 53 38 79 95 85 75 62 55 28 40 41 32 41 86 100 100 100 100
100 100 97 98 66 76 73 59 52 43 34 36 52 50 92 72 68 87 79 64 56 65 70 58 53 70 64 50 82 48 56 34 70 59 44 36 42 46 38 69 95 100 100 100
100 100 97 100 86 74 88 67 65 46 38 37 42 39 100 93 69 74 78 60 78 80 81 62 58 48 50 58 73 70 58 52 45 50 38 35 39 48 38 65 100 95 100 94
100 100 100 100 91 74 86 84 62 52 47 35 32 51 84 50 57 39 63 48 74 81 76 78 80 71 84 95 89 85 74 51 43 46 51 73 74 62 75 65 41 76 75 47
100 100 100 100 91 67 93 99 86 71 73 56 44 83 100 86 56 71 54 57 99 82 94 90 86 85 99 100 100 75 75 68 69 72 74 96 93 30 31 48 68 63 64 95
100 97 80 91 87 78 75 91 95 80 70 65 90 92 97 87 76 83 63 65 86 100 100 100 100 100 100 88 64 63 72 95 98 81 53 34 31 32 69 68 90 85 89 93
100 100 100 100 85 100 80 83 96 90 69 65 85 100 100 100 86 93 100 89 83 88 87 89 100 100 100 100 100 100 86 72 70 35 29 30 41 49 66 62 90 80 56 73
100 100 100 99 83 94 93 84 94 87 78 71 61 92 100 100 100 94 86 82 84 100 100 88 75 60 46 49 67 76 73 74 72 56 24 45 78 96 68 54 96 100 100 100
100 100 100 100 87 80 100 100 84 73 91 76 65 64 100 100 100 100 78 84 66 50 48 57 73 88 90 78 84 79 73 68 49 46 80 94 84 71 74 98 100 100 68 75
100 100 96 87 94 100 100 100 89 79 87 74 99 94 100 99 100 100 100 99 85 87 100 74 51 74 76 79 88 69 40 43 53 71 49 86 100 88 75 98 100 100 100 96
100 100 99 79 88 89 98 100 81 64 93 79 60 90 100 100 92 100 94 100 84 79 75 62 62 100 80 84 77 46 47 97 75 63 100 100 100 72 46 99 100 100 94 100
100 98 94 87 99 100 91 100 94 69 90 85 68 72 100 100 100 90 85 100 100 100 99 90 73 95 98 72 48 40 70 100 100 90 56 58 60 46 66 73 79 52 65 75
100 88 100 88 94 100 86 100 88 71 100 79 64 48 100 100 100 100 100 100 100 100 100 100 100 100 88 75 52 89 100 100 58 42 40 33 36 54 64 88 66 100 100 82
93 98 100 80 100 100 72 98 100 80 82 82 80 61 94 92 98 100 100 100 100 100 95 100 90 100 100 100 100 100 100 95 38 32 31 45 67 63 68 67 67 80 75 73
96 100 95 73 85 80 86 100 70 81 98 72 86 74 71 83 93 95 100 82 74 75 97 100 100 98 84 73 64 52 52 46 34 38 44 51 61 71 46 64 92 86 100 99
97 86 100 100 84 61 68 78 75 74 68 70 100 100 94 92 86 67 69 61 69 66 78 83 75 74 67 51 47 48 40 45 42 54 77 90 89 100 100 96 99 100 100 100
99 72 73 64 60 44 68 84 78 85 64 74 44 57 76 80 81 100 99 77 61 72 56 60 65 56 62 73 63 59 59 79 91 100 100 100 100 67 100 100 100 100 100 99
96 100 82 73 69 64 60 82 96 97 91 61 55 36 36 45 48 44 65 31 54 73 67 65 60 58 45 48 65 81 98 91 100 100 100 100 100 100 100 100 100 100 100 97
96 54 61 54 42 30 96 99 63 73 41 32 56 42 40 46 62 72 68 64 34 50 100 100 74 90 71 95 90 91 60 77 100 100 100 100 100 100 100 100 100 100 100 100
73 42 62 64 40 76 71 66 42 44 42 74 62 67 97 100 88 98 99 100 100 85 92 99 100 100 99 80 82 100 100 100 88 100 100 100 100 100 100 100 100 100 100 100
87 43 43 42 37 41 89 98 66 58 77 75 100 79 97 96 100 100 61 100 100 100 100 100 100 82 54 89 91 100 100 100 100 100 100 100 100 100 100 100 100 100 100 100
83 57 73 60 59 73 61 47 94 77 98 100 100 87 66 68 87 100 100 85 96 80 95 100 100 99 72 100 100 97 90 100 100 100 100 100 100 100 96 100 100 100 100 100
80 64 100 70 77 80 76 100 100 94 100 81 97 100 92 79 74 79 62 78 92 99 100 100 100 100 100 100 100 100 99 91 100 100 100 100 100 100 100 100 100 100 99 100
Wind_Speed
53 48 50 52 53 51 44 39 33 32 34 30 32 28 29 25 24 28 25 23 23 20 21 23 31 31 29 29 25 29 36 27 26 26 31 32 29 26 19 17 23 31 36 39
54 51 53 53 53 53 45 39 35 35 34 33 31 31 29 28 25 29 29 26 25 23 20 19 25 28 29 30 27 34 30 30 30 34 35 29 25 20 21 26 30 34 39 42
54 53 53 55 52 54 45 42 36 33 31 35 34 36 30 28 27 28 32 29 27 24 24 23 25 27 26 27 24 24 26 24 34 40 28 23 18 20 22 26 29 34 41 46
52 58 58 50 54 55 49 40 37 34 33 35 37 39 36 31 30 30 34 31 29 27 25 24 27 29 25 27 24 26 25 28 31 32 18 14 22 25 31 39 42 49 53 56
62 62 55 48 52 56 53 45 37 33 33 35 40 36 41 35 32 33 33 32 32 30 31 29 29 28 31 28 30 32 33 33 31 29 25 30 34 39 38 49 54 56 61 64
61 58 54 50 52 56 53 48 39 34 34 34 39 35 41 42 35 36 33 37 33 33 34 32 32 34 35 34 34 33 33 32 23 25 28 30 35 46 47 60 62 65 68 66
67 62 60 57 53 58 58 52 43 35 34 34 39 36 42 43 39 37 38 41 38 37 35 35 34 35 37 36 33 32 32 33 33 35 37 47 55 59 62 57 52 56 57 61
64 61 59 55 56 62 57 51 47 41 36 39 40 38 37 44 42 41 40 40 40 42 39 39 38 38 33 31 35 27 29 33 37 45 48 56 57 48 49 54 55 59 64 68
65 65 63 57 59 60 62 56 54 46 43 40 45 43 44 44 43 46 43 39 40 41 39 36 39 40 28 27 28 35 43 47 47 47 44 47 48 48 54 57 65 63 68 70
67 61 63 59 56 60 62 59 57 55 48 43 45 45 51 48 47 43 49 46 41 41 41 39 36 30 32 36 39 43 48 53 51 46 46 45 52 54 60 59 64 69 70 75
71 65 65 71 62 62 63 60 63 59 53 46 45 45 52 49 45 45 48 50 44 40 42 43 45 44 49 46 49 51 53 54 52 55 50 64 67 70 64 67 73 78 73 77
73 71 71 72 71 61 62 63 61 62 56 52 48 41 49 49 48 49 48 54 53 48 47 47 45 42 45 46 46 53 49 53 52 53 63 65 68 69 70 73 75 77 77 82
77 77 77 73 69 64 60 61 64 65 56 49 49 43 53 49 53 56 56 56 54 52 55 51 47 45 45 50 50 52 53 50 57 55 56 67 71 66 70 76 79 80 85 89
79 79 80 74 74 77 65 64 65 69 64 59 48 49 52 52 54 58 55 59 56 55 55 54 53 58 51 52 52 51 55 64 62 68 70 68 67 70 76 83 84 85 92 92
84 81 82 73 73 76 70 63 67 69 72 67 50 49 54 59 65 61 59 62 60 59 59 59 56 62 58 59 58 60 69 67 67 70 76 74 73 76 79 81 84 86 95 96
85 81 87 74 76 75 73 65 71 70 63 57 58 45 56 60 58 63 64 63 64 67 67 66 66 62 61 62 66 71 68 69 70 69 74 72 73 83 87 90 92 98 99 103
88 83 87 76 83 82 75 70 70 70 60 58 55 48 65 62 61 62 61 61 62 66 69 69 63 68 70 71 72 72 73 77 74 74 76 83 86 91 96 92 94 97 101 102
89 86 91 87 93 89 69 71 74 63 57 59 57 60 61 68 70 66 66 64 65 64 63 65 65 64 65 70 71 71 71 76 73 80 82 87 88 92 94 96 103 105 108 116
94 98 98 94 93 87 65 66 70 64 54 55 60 67 70 72 68 59 65 61 56 61 64 65 67 68 73 70 76 79 86 89 89 94 97 100 103 106 107 110 111 107 115 117
92 93 96 93 87 74 60 66 69 64 51 63 65 68 73 72 65 69 68 64 63 68 68 71 78 81 83 88 89 87 87 90 96 104 105 105 104 108 109 112 114 122 127 121
88 88 88 87 85 68 62 58 67 66 64 73 70 71 62 61 62 66 72 70 68 72 77 79 83 85 83 88 92 93 96 97 98 103 107 108 109 113 111 114 119 125 133 128
90 88 88 80 74 52 60 70 72 70 67 64 71 71 74 75 77 78 82 84 85 82 83 89 98 100 99 98 97 96 99 105 107 105 109 111 114 116 124 130 125 129 135 137
90 85 80 73 67 68 71 70 70 69 74 77 75 78 84 87 87 88 89 91 96 93 94 96 100 105 112 105 104 103 103 105 109 113 116 120 121 120 123 126 131 136 149 151
92 84 77 79 67 70 74 79 75 74 76 77 81 79 81 89 98 92 95 101 102 103 108 107 110 113 115 110 109 111 114 113 111 114 122 124 129 133 137 145 149 153 153 158
88 88 88 90 81 79 81 77 83 85 83 87 88 94 97 92 98 107 108 109 109 104 107 112 120 123 121 116 115 114 120 118 119 123 125 130 136 142 151 160 160 159 162 168
86 86 94 95 92 89 83 90 85 86 91 93 94 104 109 106 106 104 104 110 115 116 118 123 125 125 125 124 128 127 134 122 124 131 137 150 156 162 162 159 160 162 159 140
Wind_Direction
297 302 309 314 319 320 321 319 308 304 295 299 296 299 299 303 301 297 303 306 304 302 284 272 268 274 271 275 287 282 290 289 283 281 302 311 305 296 339 334 346 346 339 343
292 297 303 309 313 318 317 314 310 299 294 297 297 292 294 303 296 292 296 300 311 313 298 279 269 278 279 281 281 287 290 292 284 291 309 300 287 296 322 332 327 335 331 322
286 293 300 303 309 314 315 312 308 297 294 293 297 291 295 292 295 293 289 301 310 312 304 281 277 274 277 285 292 289 291 285 299 305 297 282 299 306 322 324 325 322 323 323
282 288 294 295 302 308 310 309 303 297 292 289 296 296 298 293 291 289 289 300 307 299 295 301 292 286 286 294 285 283 285 288 291 294 296 287 298 314 319 315 310 308 308 311
284 284 288 289 299 304 309 309 299 296 292 289 290 296 298 293 288 289 290 294 299 298 292 297 293 293 292 287 281 289 288 292 278 274 281 292 303 307 318 315 312 311 310 312
280 281 280 285 293 299 305 308 295 299 288 288 286 289 290 291 295 289 290 291 288 287 287 292 294 297 293 290 289 287 282 281 272 265 283 299 308 308 307 306 307 305 308 310
278 275 276 280 288 295 299 303 298 292 290 289 289 290 288 286 288 288 288 292 289 287 287 288 292 288 284 285 279 277 275 271 269 280 285 299 302 306 303 308 312 315 312 312
270 271 276 278 279 288 295 302 295 294 291 284 286 288 285 291 288 287 282 284 286 287 287 287 284 280 285 281 280 281 280 274 279 282 280 292 297 308 307 308 312 307 313 315
270 272 274 274 278 286 287 294 299 295 290 288 283 282 282 284 289 292 286 284 279 277 284 285 279 275 280 272 263 280 287 291 291 292 299 299 301 305 310 311 311 310 310 311
269 270 273 272 278 282 284 290 296 296 296 288 279 278 281 282 282 286 280 278 272 269 268 274 280 282 279 287 279 283 284 286 291 298 294 297 310 309 311 309 308 310 311 311
265 269 269 275 275 276 282 286 292 293 297 293 280 279 278 277 278 280 276 278 274 271 270 275 280 280 287 286 286 291 287 292 286 290 294 304 305 304 304 308 306 308 307 312
264 264 268 271 274 275 279 284 285 289 294 294 283 276 273 269 273 270 271 272 280 282 279 286 286 286 288 291 290 291 286 293 292 293 298 305 303 305 303 304 305 313 307 306
260 262 264 267 271 275 277 280 286 290 292 292 283 275 269 264 263 265 264 272 277 278 284 287 287 286 286 288 288 288 295 296 298 301 301 300 301 300 302 305 305 306 307 304
258 261 264 266 270 272 272 276 282 286 290 291 282 277 273 265 263 259 261 264 269 276 281 281 286 285 289 289 291 285 293 298 296 294 298 297 300 299 298 306 310 309 309 305
255 259 265 266 265 266 270 274 279 284 288 289 275 273 271 265 259 262 263 262 268 275 278 279 276 284 288 289 290 286 292 295 291 294 297 298 300 299 298 302 304 302 306 307
261 262 262 262 262 263 266 271 275 283 281 278 281 279 268 261 265 265 266 268 270 271 271 274 277 279 280 282 282 286 286 294 294 293 293 297 300 301 302 301 300 304 303 306
261 259 261 262 260 262 269 275 278 280 278 280 273 260 263 266 265 264 266 268 271 270 268 273 273 279 281 282 281 283 286 287 292 295 292 302 302 303 304 303 305 307 308 308
256 256 261 263 263 265 274 273 276 273 271 273 266 264 265 262 264 268 273 276 275 277 275 274 275 279 286 289 286 291 289 295 297 302 302 303 303 304 309 309 304 305 304 305
256 259 261 263 266 271 274 275 271 271 272 271 256 258 262 265 269 271 272 274 283 280 278 282 282 284 288 286 297 296 299 298 300 301 302 301 302 301 300 303 308 308 305 303
259 262 264 266 268 270 269 271 271 268 271 259 263 262 266 269 272 270 273 279 283 283 291 296 297 296 296 296 296 296 299 301 299 297 297 299 298 302 299 297 299 302 306 304
258 263 266 267 271 272 269 268 268 262 264 261 266 272 271 271 273 280 273 283 287 289 288 293 297 299 298 296 297 297 297 295 295 296 296 297 294 295 299 298 298 299 300 305
257 260 265 265 272 273 262 262 268 265 269 272 269 273 275 279 284 284 281 281 287 292 287 288 295 300 303 295 296 298 301 297 294 294 294 296 296 298 297 297 299 297 299 302
257 260 258 262 275 272 269 264 265 268 267 275 278 282 283 280 280 284 280 274 280 283 288 291 287 294 298 296 293 295 294 298 300 296 298 295 293 293 295 295 295 298 297 300
258 263 251 262 266 267 269 266 268 272 271 276 276 283 280 280 278 280 285 286 279 282 283 288 292 293 295 296 294 294 292 290 293 293 290 295 294 295 295 296 295 296 297 300
260 264 264 262 266 266 268 273 269 271 274 275 271 280 282 289 283 278 277 281 283 282 280 288 291 293 295 295 292 295 295 286 287 292 292 292 293 295 296 297 296 297 298 297
263 267 264 266 270 270 275 275 270 270 271 273 275 276 280 285 291 288 281 282 279 282 285 289 291 293 294 295 294 291 293 286 288 290 290 293 296 298 296 295 293 293 296 297